N9DRW Weather Reports


Display with metric or nautical units.
time (UTC)temp
F
wind
direction
speed
MPH
gust
MPH
rain 1hr
in
rain 24hr
in
rain mn
in
humidity
%
barometer
mb
20260901071204 74 273 0.0 1.0 0.00 0.00 0.00 91
20260901070207 74 257 1.0 3.0 0.00 0.00 0.00 91
20260901065204 74 237 0.0 3.0 0.00 0.00 0.00 91
20260901064204 74 252 1.0 2.0 0.00 0.00 0.00 91
20260901063204 74 228 0.0 1.0 0.00 0.00 0.00 90
20260901062204 74 217 2.0 5.0 0.00 0.00 0.00 91
20260901061204 75 246 0.0 3.0 0.00 0.00 0.00 90
20260901060204 74 331 0.0 3.0 0.00 0.00 0.00 90
20260901055204 75 292 0.0 1.0 0.00 0.00 0.00 90
20260901054204 75 231 0.0 2.0 0.00 0.00 0.00 89
20260901053204 75 264 1.0 2.0 0.00 0.00 0.00 89
20260901052205 75 301 0.0 2.0 0.00 0.00 0.00 89
20260901051205 75 314 0.0 3.0 0.00 0.00 0.00 89
20260901050203 75 199 1.0 3.0 0.00 0.00 0.00 89
20260901045204 75 287 0.0 1.0 0.00 0.00 0.00 88
20260901044204 75 308 0.0 0.0 0.00 0.00 0.00 88
20260901043204 75 308 1.0 2.0 0.00 0.00 0.00 88
20260901042204 75 291 0.0 2.0 0.00 0.00 0.00 88
20260901041204 75 232 0.0 2.0 0.00 0.00 0.00 87
20260901040204 76 251 1.0 2.0 0.00 0.00 0.00 86
20260901035204 76 343 0.0 2.0 0.00 0.00 0.00 86
20260901034204 76 167 0.0 2.0 0.00 0.00 0.00 86
20260901033204 76 207 0.0 2.0 0.00 0.00 0.00 85
20260901032204 77 193 0.0 1.0 0.00 0.00 0.00 84
20260901031204 77 192 0.0 2.0 0.00 0.00 0.00 84
20260901030204 77 235 0.0 1.0 0.00 0.00 0.00 84
20260901025204 77 255 0.0 3.0 0.00 0.00 0.00 84
20260901024204 77 213 1.0 3.0 0.00 0.00 0.00 84
20260901023204 77 202 1.0 2.0 0.00 0.00 0.00 84
20260901022204 77 208 1.0 2.0 0.00 0.00 0.00 84
20260901021204 77 172 0.0 2.0 0.00 0.00 0.00 83
20260901020204 77 194 0.0 1.0 0.00 0.00 0.00 82
20260901015204 78 263 0.0 0.0 0.00 0.00 0.00 81
20260901014204 78 2 0.0 1.0 0.00 0.00 0.00 80
20260901013204 78 305 0.0 2.0 0.00 0.00 0.00 80
20260901012204 78 288 1.0 2.0 0.00 0.01 0.00 80
20260901011204 79 202 0.0 2.0 0.00 0.01 0.00 79
20260901010204 79 256 1.0 5.0 0.00 0.01 0.00 78
20260901005204 79 294 1.0 3.0 0.00 0.01 0.00 78
20260901004205 79 262 2.0 5.0 0.00 0.01 0.00 77
20260901003204 80 220 2.0 5.0 0.00 0.01 0.00 76
20260901002204 80 248 1.0 5.0 0.00 0.01 0.00 74
20260901001204 81 264 1.0 5.0 0.00 0.02 0.00 73
20260901000204 81 244 2.0 7.0 0.00 0.02 0.00 71
20260831235204 82 244 3.0 8.0 0.00 0.02 0.00 70
20260831234204 82 273 3.0 7.0 0.00 0.02 0.00 69
20260831233204 82 237 2.0 8.0 0.00 0.02 0.00 69
20260831232204 82 248 3.0 8.0 0.00 0.02 0.00 69
20260831231204 82 242 2.0 6.0 0.00 0.02 0.00 69
20260831230207 82 215 2.0 7.0 0.00 0.02 0.00 69
20260831225204 82 228 2.0 8.0 0.00 0.02 0.00 68
20260831224203 83 161 0.0 5.0 0.00 0.02 0.00 68
20260831223204 83 223 1.0 5.0 0.00 0.02 0.00 67
20260831222204 83 234 2.0 8.0 0.00 0.02 0.00 67
20260831221204 83 234 3.0 7.0 0.00 0.02 0.00 66
20260831220204 83 256 3.0 8.0 0.00 0.02 0.00 65
20260831215204 84 233 5.0 9.0 0.00 0.02 0.00 65
20260831214204 84 174 3.0 7.0 0.00 0.02 0.00 64
20260831213204 83 233 2.0 9.0 0.00 0.02 0.00 65
20260831212204 83 231 2.0 6.0 0.00 0.02 0.00 64
20260831211204 83 253 2.0 8.0 0.00 0.02 0.00 64
20260831210204 83 235 3.0 8.0 0.00 0.02 0.00 64
20260831205204 83 184 3.0 9.0 0.00 0.02 0.00 63
20260831204203 85 269 5.0 8.0 0.00 0.02 0.00 61
20260831203204 85 299 2.0 6.0 0.00 0.02 0.00 60
20260831202204 84 209 3.0 10.0 0.00 0.02 0.00 62
20260831201204 84 217 3.0 8.0 0.00 0.02 0.00 62
20260831200204 84 230 2.0 7.0 0.00 0.02 0.00 63
20260831195204 84 253 2.0 7.0 0.00 0.02 0.00 61
20260831194204 84 265 1.0 7.0 0.00 0.02 0.00 59
20260831193204 84 227 3.0 13.0 0.00 0.02 0.00 59
20260831192205 84 215 5.0 10.0 0.00 0.02 0.00 59
20260831191203 83 227 3.0 7.0 0.00 0.02 0.00 63
20260831190208 83 254 2.0 8.0 0.00 0.02 0.00 62
20260831185204 83 227 2.0 6.0 0.00 0.02 0.00 62
20260831184204 83 227 2.0 5.0 0.00 0.02 0.00 63
20260831183204 83 244 2.0 7.0 0.00 0.03 0.00 62
20260831182204 83 253 4.0 7.0 0.00 0.03 0.00 60
20260831181204 84 259 2.0 9.0 0.00 0.03 0.00 60
20260831180204 84 229 2.0 9.0 0.00 0.03 0.00 60
20260831175204 85 274 4.0 12.0 0.00 0.03 0.00 58
20260831174204 85 267 4.0 13.0 0.00 0.03 0.00 56
20260831173204 85 271 2.0 12.0 0.00 0.03 0.00 57
20260831172204 85 240 4.0 10.0 0.00 0.03 0.00 56
20260831171204 84 248 4.0 9.0 0.00 0.03 0.00 58
20260831170204 84 208 3.0 12.0 0.00 0.03 0.00 59
20260831165204 83 268 3.0 12.0 0.00 0.03 0.00 61
20260831164204 82 252 5.0 9.0 0.00 0.03 0.00 61
20260831163204 82 298 4.0 9.0 0.00 0.03 0.00 61
20260831162204 82 285 3.0 13.0 0.00 0.03 0.00 60
20260831161204 82 221 4.0 9.0 0.00 0.03 0.00 60
20260831160204 81 230 3.0 8.0 0.00 0.03 0.00 62
20260831155204 81 265 3.0 9.0 0.00 0.03 0.00 62
20260831154204 80 210 3.0 9.0 0.00 0.03 0.00 63
20260831153204 79 247 1.0 9.0 0.00 0.03 0.00 66
20260831152204 78 229 6.0 10.0 0.00 0.03 0.00 65
20260831151204 79 252 3.0 8.0 0.00 0.03 0.00 64
20260831150207 79 241 4.0 10.0 0.00 0.03 0.00 65
20260831145204 78 198 3.0 12.0 0.00 0.03 0.00 65
20260831144204 79 227 5.0 12.0 0.00 0.03 0.00 64
20260831143204 78 249 3.0 10.0 0.00 0.03 0.00 66
20260831142203 78 233 2.0 13.0 0.00 0.03 0.00 66
20260831141204 77 237 4.0 10.0 0.00 0.03 0.00 66
20260831140204 76 244 3.0 8.0 0.00 0.03 0.00 68
20260831135204 75 235 4.0 8.0 0.00 0.03 0.00 70
20260831134204 75 250 3.0 8.0 0.00 0.03 0.00 69
20260831133204 75 223 3.0 9.0 0.00 0.03 0.00 68
20260831132204 75 256 2.0 8.0 0.00 0.03 0.00 70
20260831131205 74 242 2.0 6.0 0.00 0.03 0.00 71
20260831130204 74 213 1.0 5.0 0.00 0.03 0.00 73
20260831125204 73 303 1.0 7.0 0.00 0.03 0.00 75
20260831124204 72 225 2.0 8.0 0.00 0.03 0.00 76
20260831123203 72 349 0.0 6.0 0.00 0.03 0.00 76
20260831122204 72 204 0.0 7.0 0.00 0.03 0.00 76
20260831121204 72 188 0.0 5.0 0.00 0.03 0.00 75
20260831120204 72 159 1.0 7.0 0.00 0.03 0.00 74
20260831115204 72 258 3.0 7.0 0.00 0.03 0.00 75
20260831114204 72 250 1.0 5.0 0.00 0.03 0.00 76
20260831113204 72 193 1.0 9.0 0.00 0.03 0.00 75
20260831112204 72 200 2.0 8.0 0.00 0.03 0.00 74
20260831111204 72 139 1.0 6.0 0.00 0.03 0.00 75
20260831110208 72 229 1.0 8.0 0.00 0.03 0.00 75
20260831105203 72 244 0.0 2.0 0.00 0.03 0.00 75
20260831104204 72 196 1.0 7.0 0.00 0.03 0.00 75
20260831103204 72 231 1.0 6.0 0.00 0.03 0.00 75
20260831102204 72 225 1.0 5.0 0.00 0.03 0.00 75
20260831101205 72 262 1.0 6.0 0.00 0.03 0.00 75
20260831100204 73 308 2.0 6.0 0.00 0.03 0.00 75
20260831095204 73 215 2.0 7.0 0.00 0.03 0.00 75
20260831094204 73 217 1.0 3.0 0.00 0.03 0.00 76
20260831093204 73 157 0.0 7.0 0.00 0.03 0.00 76
20260831092204 73 232 2.0 6.0 0.00 0.03 0.00 76
20260831091203 73 226 1.0 3.0 0.00 0.03 0.00 78
20260831090204 73 246 0.0 6.0 0.00 0.03 0.00 79
20260831085208 72 239 0.0 3.0 0.00 0.03 0.00 79
20260831084204 72 233 2.0 6.0 0.00 0.03 0.00 80
20260831083207 72 182 0.0 5.0 0.00 0.03 0.00 81
20260831082203 72 245 1.0 8.0 0.00 0.03 0.00 81
20260831081204 72 243 0.0 5.0 0.00 0.03 0.00 81
20260831080204 72 205 1.0 5.0 0.00 0.03 0.00 81
20260831075204 72 252 2.0 8.0 0.00 0.03 0.00 82
20260831074204 72 226 1.0 7.0 0.00 0.03 0.00 82
20260831073204 72 235 1.0 5.0 0.00 0.03 0.00 82
20260831072204 72 96 1.0 6.0 0.00 0.03 0.00 82